Regional Weather Roundup
Issued by NWS

Home | Current Version | Previous Version | Graphics & Text | Print | Product List | Glossary On
Versions: 1 2 3 4 5 6 7 8 9 10 11 12 13 14 15 16 17 18 19 20 21 22 23 24 25 26 27 28 29 30 31 32 33 34 35 36 37 38 39 40 41 42 43 44 45 46 47 48 49 50
000
ASUS43 KFSD 221310
RWRSD

WEATHER ROUNDUP FOR SOUTH DAKOTA
NATIONAL WEATHER SERVICE SIOUX FALLS SD
800 AM CDT MON MAY 22 2017

NOTE: "FAIR" INDICATES FEW OR NO CLOUDS BELOW 12,000 FEET WITH NO
SIGNIFICANT WEATHER AND/OR OBSTRUCTIONS TO VISIBILITY.


SDZ001>005-009-010-012>017-221400-
NORTHWEST AND NORTH CENTRAL SOUTH DAKOTA

CITY           SKY/WX    TMP DP  RH WIND       PRES   REMARKS
BUFFALO          N/A     46  44  93 W9        29.95R
FAITH            N/A     48  47  96 W14       29.96S
MOBRIDGE       CLOUDY    54  43  66 NW16      29.88R
$$

SDZ012>016-024>037-041>051-057-063-072>074-221400-
SOUTHWEST AND SOUTH CENTRAL SOUTH DAKOTA

CITY           SKY/WX    TMP DP  RH WIND       PRES   REMARKS
RAPID CTY ARPT PTSUNNY   48  42  80 N10       30.01R
PIERRE         LGT RAIN  49  45  86 NW10      29.93R
CUSTER         CLOUDY    41  34  76 W9        30.06R
ELLSWORTH AFB  PTSUNNY   48  44  85 N13       30.00S
PHILIP         LGT RAIN  49  47  93 SW9       29.98S
PINE RIDGE     CLOUDY    46  42  86 W6        30.04R
SPEARFISH      FAIR      52  39  62 W15G23    30.05R
WINNER         FAIR      53  43  68 W9        29.96R
$$

SDZ004>011-016>023-039-040-221400-
NORTHEAST SOUTH DAKOTA

CITY           SKY/WX    TMP DP  RH WIND       PRES   REMARKS
ABERDEEN       CLOUDY    42  39  89 N6        29.89S FOG
WATERTOWN      SUNNY     46  43  89 CALM      29.86F
BROOKINGS      SUNNY     48  44  86 S3        29.88F
SISSETON         N/A     46  43  89 NW6       29.88S
$$

SDZ017-020-022-023-036>040-048>070-221400-
SOUTHEAST SOUTH DAKOTA

CITY           SKY/WX    TMP DP  RH WIND       PRES   REMARKS
SIOUX FALLS    MOSUNNY   53  47  79 W5        29.89S
HURON          CLOUDY    50  45  83 W8        29.89R
CHAMBERLAIN    PTSUNNY   52  46  82 W7        29.93S
MITCHELL       SUNNY     51  46  83 W10       29.90S
YANKTON          N/A     55  46  71 S12       29.93S
$$

ABBREVIATIONS USED IN REMARKS
   TC - TEMPERATURE IN CELSIUS
  WCI - WIND CHILL INDEX
   HX - HEAT INDEX
  VSB - VISIBILITY





USA.gov is the U.S. government's official web portal to all federal, state and local government web resources and services.